Terminal Aerodrome Forecast
Issued by NWS St Louis, MO

Home | Current Version | Previous Version | Graphics & Text | Print | Product List | Glossary On
Versions: 1 2 3 4 5 6 7 8 9 10 11 12 13 14 15 16 17 18 19 20 21 22 23 24 25 26 27 28 29 30
000
FTUS43 KLSX 192300
TAFSTL
TAF
KSTL 192328Z 2000/2106 VRB03KT P6SM SCT025 OVC050
     FM200600 10003KT 5SM BR BKN025 OVC040
     FM200900 12003KT 4SM BR SCT007 OVC015
     FM201700 17006KT 6SM HZ BKN020 OVC050=

USA.gov is the U.S. government's official web portal to all federal, state and local government web resources and services.